Weather Roundup
Issued by NWS Springfield, MO

Home | Current Version | Previous Version | Text Only | Print | Product List | Glossary On
Versions: 1 2 3 4 5 6 7 8 9 10 11 12 13 14 15 16 17 18 19 20 21 22 23 24 25 26 27 28 29 30 31 32 33 34 35 36 37 38 39 40 41 42 43 44 45 46 47 48 49 50
000
NZUS99 KSGF 181107
HRRSGF

HOURLY WEATHER
NATIONAL WEATHER SERVICE SPRINGFIELD MO
500 AM CST MON DEC 18 2017

......SGF CWA......

CITY           SKY/WX    TMP DP  RH WIND       PRES   REMARKS
SPRINGFIELD    CLOUDY    44  42  93 W9        30.08S
JOPLIN         CLOUDY    44  44 100 SW10      30.10S
WEST PLAINS    CLOUDY    46  45  96 SW6       30.09S
ROLLA          CLOUDY    43  43 100 SW6       30.06F
OSAGE BEACH    CLOUDY    44  42  93 SW6       30.08S
BRANSON        CLOUDY    45  41  87 W3        30.12R

......SURROUNDING SGF CWA......

CITY           SKY/WX    TMP DP  RH WIND       PRES   REMARKS
CHANUTE        CLOUDY    45  42  89 SW9       30.09R
PARSONS        CLOUDY    44  44 100 SW7       30.11R
COFFEYVILLE    CLOUDY    45  43  93 SW10      30.11R
EMPORIA        CLEAR     33  31  92 W7        30.05R WCI  27
GROVE OK       CLOUDY    45  45 100 SW3       30.13R
ROGERS AR      CLOUDY    44  42  93 SW9       30.13R
SILOAM SPRINGS CLOUDY    44  42  93 SW7       30.13S
HARRISON AR    CLOUDY    45  41  86 W10       30.11S
NEAR YELLVILLE CLOUDY    47  46  97 CALM      30.12S

......KANSAS AND MISSOURI......

CITY           SKY/WX    TMP DP  RH WIND       PRES   REMARKS
KANSAS CTY INT CLOUDY    39  38  96 SW5       30.02S FOG
DOWNTOWN KC    PTCLDY    44  39  82 W6        30.03R
COLUMBIA       CLOUDY    45  42  89 SW10      30.04S
SEDALIA        CLOUDY    45  44  97 SW9       30.06R
ST JOSEPH      CLOUDY    36  36 100 W8        30.03S FOG     WCI  30
ST LOUIS       DRIZZLE   47  43  86 SW9       30.07R
SPIRIT OF STL  CLOUDY    46  43  89 SW6       30.06S
KIRKSVILLE     CLOUDY    44  44 100 SW8       29.99S
WICHITA        PTCLDY    28  27  96 W3        30.08R
TOPEKA         FOG       33  33 100 CALM      30.03S VSB 1/4
OLATHE         CLOUDY    42  42 100 SW5       30.03S

......TENNESSEE......

CITY           SKY/WX    TMP DP  RH WIND       PRES   REMARKS
MEMPHIS        CLOUDY    45  44  97 W7        30.15R FOG
NASHVILLE      CLOUDY    47  46  97 S3        30.14F FOG

......ARKANSAS.......

CITY           SKY/WX    TMP DP  RH WIND       PRES   REMARKS
FAYETTEVILLE   CLOUDY    45  42  89 W6        30.13S
FT SMITH       CLOUDY    47  46  97 W6        30.16R
LITTLE ROCK    MOCLDY    43  43 100 S8        30.18R

......OKLAHOMA.......

CITY           SKY/WX    TMP DP  RH WIND       PRES   REMARKS
TULSA          CLOUDY    44  42  93 SW7       30.13F
PONCA CITY     FOG       38  36  92 SW5       30.11S VSB 1/4 WCI  34
MCALESTER      CLOUDY    47  45  93 S3        30.16F FOG
OKLAHOMA CITY  FOG       38  38 100 SW8       30.12F VSB 1/8 WCI  32

......IOWA............

CITY           SKY/WX    TMP DP  RH WIND       PRES   REMARKS
DES MOINES     FOG       27  26  96 W6        29.97S VSB 1/8 WCI  20
QUAD CITIES    CLOUDY    41  40  96 W7        29.95R FOG

......ILLINOIS........

CITY           SKY/WX    TMP DP  RH WIND       PRES   REMARKS
QUINCY         CLOUDY    45  42  89 SW12      30.00S
CHICAGO        DRIZZLE   42  40  92 W9        29.91F FOG



USA.gov is the U.S. government's official web portal to all federal, state and local government web resources and services.